Location: Bay Harbour
(38.2612°N, 75.2555°W)
Time: 02:07:49
(UTC+00:00)

CSL-04 Rocket - Pass Details

Date: 29 October 2020
Orbit: 805 x 861 km, 98.9° (Epoch: 02 December)

Event Time Altitude Azimuth Distance (km) Brightness Sun altitude
Exits shadow 23:39:12 13° 144° (SE) 2,304 5.7 -19.1°
Maximum altitude 23:44:02 51° 71° (ENE) 1,070 3.8 -20.1°
Drops below altitude 10° 23:49:21 10° 357° (N) 2,484 6.1 -21.1°
Sets 23:51:46 0° 353° (N) 3,416 6.9 -21.6°
